| time (UTC) | temp F | wind direction | speed knots | gust knots | rain 1hr in | rain 24hr in | rain mn in | humidity % | barometer mb |
| 20260502214503 | 50 | 0 | 0.0 | 0.0 | 0.00 | 0.13 | 0.13 | 92 | 1008.9 |
| 20260502213603 | 50 | 0 | 0.0 | 0.0 | 0.00 | 0.13 | 0.13 | 93 | 1008.8 |
| 20260502212724 | 50 | 0 | 0.0 | 0.0 | 0.01 | 0.13 | 0.13 | 93 | 1008.8 |
| 20260502211824 | 50 | 0 | 0.0 | 0.0 | 0.03 | 0.13 | 0.13 | 91 | 1008.8 |
| 20260502210903 | 50 | 0 | 0.0 | 0.0 | 0.03 | 0.13 | 0.13 | 91 | 1008.8 |
| 20260502210003 | 50 | 0 | 0.0 | 0.0 | 0.03 | 0.13 | 0.13 | 90 | 1008.9 |
| 20260502205424 | 50 | 292 | 0.0 | 0.9 | 0.03 | 0.13 | 0.13 | 89 | 1008.9 |
| 20260502204503 | 50 | 292 | 0.0 | 0.9 | 0.03 | 0.13 | 0.13 | 89 | 1008.9 |
| 20260502203603 | 50 | 292 | 0.0 | 1.7 | 0.03 | 0.13 | 0.13 | 87 | 1009.0 |
| 20260502202703 | 51 | 283 | 0.9 | 5.2 | 0.02 | 0.12 | 0.12 | 84 | 1009.0 |
| 20260502201803 | 52 | 302 | 1.7 | 9.6 | 0.00 | 0.10 | 0.10 | 81 | 1008.9 |
| 20260502200903 | 54 | 279 | 2.6 | 9.6 | 0.00 | 0.10 | 0.10 | 77 | 1008.9 |
| 20260502200003 | 56 | 251 | 0.0 | 7.0 | 0.00 | 0.10 | 0.10 | 68 | 1008.6 |
| 20260502195424 | 56 | 177 | 0.0 | 2.6 | 0.00 | 0.10 | 0.10 | 67 | 1008.6 |
| 20260502194524 | 57 | 147 | 0.0 | 2.6 | 0.00 | 0.10 | 0.10 | 66 | 1008.6 |
| 20260502193624 | 57 | 143 | 0.9 | 4.3 | 0.00 | 0.10 | 0.10 | 69 | 1008.9 |
| 20260502192703 | 56 | 180 | 1.7 | 7.8 | 0.00 | 0.10 | 0.10 | 66 | 1008.9 |
| 20260502191824 | 55 | 171 | 0.0 | 1.7 | 0.00 | 0.10 | 0.10 | 71 | 1009.2 |
| 20260502190903 | 55 | 169 | 0.9 | 6.1 | 0.00 | 0.10 | 0.10 | 72 | 1009.2 |
| 20260502190004 | 55 | 186 | 1.7 | 7.8 | 0.00 | 0.10 | 0.10 | 70 | 1009.2 |
| 20260502185403 | 55 | 202 | 1.7 | 7.8 | 0.00 | 0.10 | 0.10 | 67 | 1009.2 |
| 20260502184503 | 55 | 168 | 0.9 | 7.0 | 0.00 | 0.10 | 0.10 | 70 | 1009.3 |
| 20260502183603 | 56 | 211 | 0.0 | 4.3 | 0.00 | 0.10 | 0.10 | 66 | 1009.3 |
| 20260502182703 | 55 | 167 | 0.9 | 5.2 | 0.00 | 0.10 | 0.10 | 67 | 1009.3 |
| 20260502181803 | 55 | 173 | 0.9 | 7.0 | 0.00 | 0.10 | 0.10 | 68 | 1009.5 |
| 20260502180903 | 55 | 162 | 1.7 | 7.0 | 0.00 | 0.10 | 0.10 | 68 | 1009.5 |
| 20260502163603 | 52 | 191 | 0.9 | 6.1 | 0.00 | 0.09 | 0.09 | 74 | 1010.0 |
| 20260502162703 | 53 | 165 | 0.9 | 6.1 | 0.00 | 0.09 | 0.09 | 69 | 1010.0 |
| 20260502161803 | 53 | 157 | 0.9 | 8.7 | 0.00 | 0.09 | 0.09 | 75 | 1010.1 |
| 20260502160903 | 53 | 157 | 0.0 | 8.7 | 0.00 | 0.09 | 0.09 | 79 | 1010.1 |
| 20260502151803 | 52 | 189 | 0.0 | 0.9 | 0.00 | 0.09 | 0.09 | 88 | 1010.5 |
| 20260502150924 | 51 | 339 | 0.0 | 4.3 | 0.00 | 0.09 | 0.09 | 91 | 1010.4 |
| 20260502123603 | 48 | 221 | 0.0 | 0.9 | 0.02 | 0.02 | 0.02 | 88 | 1011.6 |
| 20260502122703 | 48 | 219 | 0.0 | 0.9 | 0.00 | 0.00 | 0.00 | 86 | 1011.6 |
| 20260502121803 | 48 | 224 | 0.9 | 5.2 | 0.00 | 0.00 | 0.00 | 84 | 1011.5 |
| 20260502120924 | 48 | 227 | 0.9 | 5.2 | 0.00 | 0.00 | 0.00 | 86 | 1011.5 |
| 20260502115403 | 48 | 196 | 0.0 | 0.9 | 0.00 | 0.00 | 0.00 | 87 | 1011.2 |
| 20260502114503 | 48 | 200 | 0.0 | 0.9 | 0.00 | 0.00 | 0.00 | 86 | 1011.0 |
| 20260502113603 | 47 | 310 | 0.0 | 0.9 | 0.00 | 0.00 | 0.00 | 86 | 1010.6 |
| 20260502112703 | 47 | 314 | 0.0 | 0.9 | 0.00 | 0.00 | 0.00 | 86 | 1010.4 |
| 20260502111803 | 47 | 303 | 0.0 | 0.9 | 0.00 | 0.00 | 0.00 | 86 | 1010.3 |
| 20260502110903 | 46 | 201 | 0.9 | 5.2 | 0.00 | 0.00 | 0.00 | 85 | 1010.7 |
| 20260502110003 | 46 | 215 | 0.0 | 0.9 | 0.00 | 0.00 | 0.00 | 86 | 1010.8 |
| 20260502104503 | 46 | 255 | 0.0 | 0.9 | 0.00 | 0.00 | 0.00 | 87 | 1010.4 |
| 20260502103603 | 46 | 214 | 0.0 | 0.9 | 0.00 | 0.00 | 0.00 | 86 | 1010.3 |
| 20260502102703 | 46 | 221 | 0.0 | 0.9 | 0.00 | 0.00 | 0.00 | 86 | 1010.4 |
| 20260502101803 | 46 | 239 | 0.0 | 0.9 | 0.00 | 0.00 | 0.00 | 85 | 1010.2 |
| 20260502100924 | 46 | 203 | 0.0 | 1.7 | 0.00 | 0.00 | 0.00 | 84 | 1010.2 |
| 20260502090906 | 46 | 222 | 0.0 | 2.6 | 0.00 | 0.00 | 0.00 | 85 | 1010.2 |
| 20260502070903 | 48 | 271 | 0.0 | 0.9 | 0.00 | 0.00 | 0.00 | 77 | 1010.1 |
| 20260502070003 | 48 | 271 | 0.0 | 0.9 | 0.00 | 0.00 | 0.00 | 76 | 1010.1 |
| 20260502065403 | 48 | 271 | 0.0 | 0.9 | 0.00 | 0.00 | 0.00 | 77 | 1010.1 |
| 20260502064504 | 49 | 227 | 0.9 | 6.1 | 0.00 | 0.00 | 0.00 | 75 | 1010.1 |
| 20260502063603 | 48 | 229 | 0.9 | 6.1 | 0.00 | 0.00 | 0.00 | 75 | 1010.3 |
| 20260502062703 | 48 | 224 | 0.0 | 3.5 | 0.00 | 0.00 | 0.00 | 75 | 1010.4 |
| 20260502060903 | 48 | 195 | 0.9 | 5.2 | 0.00 | 0.00 | 0.00 | 74 | 1010.3 |
| 20260502060003 | 48 | 198 | 0.9 | 6.1 | 0.00 | 0.00 | 0.00 | 74 | 1010.3 |
| 20260502055404 | 48 | 204 | 0.9 | 6.1 | 0.00 | 0.00 | 0.00 | 74 | 1010.3 |
| 20260502054503 | 48 | 229 | 0.9 | 3.5 | 0.00 | 0.00 | 0.00 | 74 | 1010.3 |
| 20260502053603 | 48 | 236 | 0.9 | 5.2 | 0.00 | 0.00 | 0.00 | 74 | 1010.3 |
| 20260502052703 | 48 | 226 | 0.0 | 4.3 | 0.00 | 0.00 | 0.00 | 74 | 1010.3 |
| 20260502051803 | 47 | 222 | 0.0 | 4.3 | 0.00 | 0.00 | 0.00 | 75 | 1010.3 |
| 20260502050924 | 47 | 211 | 0.0 | 3.5 | 0.00 | 0.00 | 0.00 | 75 | 1010.4 |
| 20260502050003 | 46 | 228 | 0.0 | 2.6 | 0.00 | 0.00 | 0.00 | 75 | 1010.4 |
| 20260502045403 | 46 | 228 | 0.0 | 0.9 | 0.00 | 0.00 | 0.00 | 75 | 1010.4 |
| 20260502044503 | 46 | 196 | 0.0 | 2.6 | 0.00 | 0.00 | 0.00 | 74 | 1010.4 |
| 20260502043603 | 46 | 205 | 0.0 | 0.9 | 0.00 | 0.00 | 0.00 | 74 | 1010.4 |
| 20260502042703 | 46 | 225 | 0.0 | 3.5 | 0.00 | 0.00 | 0.00 | 74 | 1010.5 |
| 20260502041803 | 47 | 259 | 0.0 | 0.9 | 0.00 | 0.00 | 0.00 | 75 | 1010.5 |
| 20260502040903 | 47 | 0 | 0.0 | 0.0 | 0.00 | 0.00 | 0.00 | 73 | 1010.5 |
| 20260502040004 | 47 | 259 | 0.0 | 0.9 | 0.00 | 0.00 | 0.00 | 74 | 1010.6 |
| 20260502035403 | 48 | 259 | 0.0 | 0.9 | 0.00 | 0.00 | 0.00 | 72 | 1010.6 |
| 20260502034503 | 48 | 238 | 0.0 | 1.7 | 0.00 | 0.00 | 0.00 | 70 | 1010.6 |
| 20260502033603 | 48 | 234 | 0.0 | 1.7 | 0.00 | 0.00 | 0.00 | 72 | 1010.6 |
| 20260502032703 | 48 | 243 | 0.0 | 0.9 | 0.00 | 0.00 | 0.00 | 69 | 1010.5 |
| 20260502031803 | 48 | 284 | 0.0 | 0.9 | 0.00 | 0.00 | 0.00 | 70 | 1010.7 |
| 20260502030903 | 48 | 217 | 0.0 | 1.7 | 0.00 | 0.00 | 0.00 | 69 | 1010.7 |
| 20260502030003 | 48 | 233 | 0.0 | 5.2 | 0.00 | 0.00 | 0.00 | 67 | 1010.6 |
| 20260502025403 | 47 | 233 | 0.0 | 4.3 | 0.00 | 0.00 | 0.00 | 69 | 1010.6 |
| 20260502024503 | 47 | 222 | 0.0 | 0.9 | 0.00 | 0.00 | 0.00 | 68 | 1010.4 |
| 20260502023603 | 47 | 223 | 0.0 | 0.9 | 0.00 | 0.00 | 0.00 | 69 | 1010.5 |
| 20260502022724 | 46 | 215 | 0.9 | 4.3 | 0.00 | 0.00 | 0.00 | 69 | 1010.6 |
| 20260502021804 | 45 | 214 | 0.9 | 5.2 | 0.00 | 0.00 | 0.00 | 68 | 1010.6 |
| 20260502020903 | 44 | 222 | 0.0 | 2.6 | 0.00 | 0.00 | 0.00 | 69 | 1010.6 |
| 20260502020003 | 45 | 0 | 0.0 | 0.0 | 0.00 | 0.00 | 0.00 | 70 | 1010.3 |
| 20260502015403 | 45 | 0 | 0.0 | 0.0 | 0.00 | 0.00 | 0.00 | 70 | 1010.3 |
| 20260502014503 | 46 | 0 | 0.0 | 0.0 | 0.00 | 0.00 | 0.00 | 69 | 1010.2 |
| 20260502013624 | 46 | 0 | 0.0 | 0.0 | 0.00 | 0.00 | 0.00 | 68 | 1010.1 |
| 20260502012703 | 46 | 0 | 0.0 | 0.0 | 0.00 | 0.00 | 0.00 | 66 | 1010.1 |
| 20260502011803 | 47 | 0 | 0.0 | 0.0 | 0.00 | 0.00 | 0.00 | 64 | 1010.1 |
| 20260502010903 | 48 | 0 | 0.0 | 0.0 | 0.00 | 0.00 | 0.00 | 65 | 1010.0 |
| 20260502010024 | 48 | 0 | 0.0 | 0.0 | 0.00 | 0.00 | 0.00 | 64 | 1009.9 |
| 20260502005403 | 49 | 0 | 0.0 | 0.0 | 0.00 | 0.00 | 0.00 | 63 | 1009.8 |
| 20260502004503 | 49 | 0 | 0.0 | 0.0 | 0.00 | 0.00 | 0.00 | 60 | 1009.8 |
| 20260502003603 | 50 | 0 | 0.0 | 0.0 | 0.00 | 0.00 | 0.00 | 59 | 1009.8 |
| 20260502002703 | 51 | 0 | 0.0 | 0.0 | 0.00 | 0.00 | 0.00 | 58 | 1009.6 |
| 20260502001804 | 52 | 0 | 0.0 | 0.0 | 0.00 | 0.00 | 0.00 | 58 | 1009.4 |
| 20260502000903 | 52 | 0 | 0.0 | 0.0 | 0.00 | 0.00 | 0.00 | 54 | 1009.2 |
| 20260502000024 | 53 | 0 | 0.0 | 0.0 | 0.00 | 0.00 | 0.00 | 54 | 1009.1 |
| 20260501235403 | 54 | 0 | 0.0 | 0.0 | 0.00 | 0.00 | 0.00 | 53 | 1009.0 |
| 20260501234524 | 55 | 0 | 0.0 | 0.0 | 0.00 | 0.00 | 0.00 | 52 | 1008.9 |
| 20260501233603 | 56 | 0 | 0.0 | 0.0 | 0.00 | 0.00 | 0.00 | 49 | 1008.8 |
| 20260501232703 | 57 | 282 | 0.0 | 0.9 | 0.00 | 0.00 | 0.00 | 43 | 1008.6 |
| 20260501231803 | 58 | 269 | 0.0 | 1.7 | 0.00 | 0.01 | 0.00 | 43 | 1008.3 |
| 20260501230903 | 59 | 274 | 0.0 | 1.7 | 0.00 | 0.01 | 0.00 | 38 | 1008.3 |
| 20260501230003 | 59 | 276 | 0.0 | 4.3 | 0.00 | 0.01 | 0.00 | 37 | 1008.3 |
| 20260501225403 | 60 | 286 | 0.0 | 4.3 | 0.00 | 0.01 | 0.00 | 34 | 1008.2 |
| 20260501224503 | 60 | 330 | 0.9 | 7.0 | 0.00 | 0.01 | 0.00 | 33 | 1008.2 |
| 20260501223603 | 61 | 269 | 0.0 | 2.6 | 0.00 | 0.01 | 0.00 | 35 | 1008.1 |
| 20260501222703 | 62 | 229 | 0.9 | 5.2 | 0.00 | 0.01 | 0.00 | 32 | 1008.1 |
| 20260501221803 | 62 | 218 | 0.9 | 7.0 | 0.00 | 0.01 | 0.00 | 32 | 1008.0 |
| 20260501220903 | 64 | 248 | 0.0 | 6.1 | 0.00 | 0.01 | 0.00 | 30 | 1008.0 |
| 20260501220003 | 65 | 260 | 0.9 | 8.7 | 0.00 | 0.01 | 0.00 | 29 | 1008.0 |
| 20260501215403 | 66 | 288 | 1.7 | 8.7 | 0.00 | 0.01 | 0.00 | 30 | 1008.0 |